Regional Weather Roundup
Issued by NWS

Home | Current Version | Previous Version | Text Only | Print | Product List | Glossary On
Versions: 1 2 3 4 5 6 7 8 9 10 11 12 13 14 15 16 17 18 19 20 21 22 23 24 25 26 27 28 29 30 31 32 33 34 35 36 37 38 39 40 41 42 43 44 45 46 47 48 49 50
000
ASUS44 KEWX 281010
RWRTX
SOUTH TEXAS REGIONAL WEATHER ROUNDUP
NATIONAL WEATHER SERVICE AUSTIN/SAN ANTONIO TX
400 AM CST SAT FEB 28 2015

NOTE: "FAIR" INDICATED FEW OR NO CLOUDS BELOW 12,000 FEET WITH NO
SIGNIFICANT WEATHER AND/OR OBSTRUCTIONS TO VISIBILITY.

* - THESE STATIONS ARE NOT NWS OR FAA STATIONS...AND ARE NOT SUBJECT
    TO NWS AND FAA QUALITY CONTROL.

TXZ171-172-183>190-281100-
TEXAS HILL COUNTRY AND EDWARDS PLATEAU

CITY           SKY/WX    TMP DP  RH WIND       PRES   REMARKS
JUNCTION       FRZ RAIN  27  26  96 E6        30.25R FOG     WCI  20
*LLANO         CLOUDY    30  28  93 CALM      30.33F FOG
BURNET         CLOUDY    27  25  92 NE9       30.29F WCI  18
*HORSESHOE BAY CLOUDY    29  29 100 CALM      30.29F
*KERRVILLE     MIX PCPN  31  30  96 CALM      30.23S
*FREDERICKSBRG CLOUDY    28  27  97 NE5       30.24S FOG     WCI  23
*ROCKSPRINGS   LGT SNOW  30  28  93 CALM      30.21S
*BOERNE STAGE  CLOUDY    32  30  93 NE5       30.25S WCI  27
*CASTROVILLE   DRIZZLE   34  33  94 NE8       30.27S WCI  28
HONDO          CLOUDY    34  32  92 NE7       30.26F WCI  28
*UVALDE        LGT RAIN  34  33  97 NE3       30.25F
DEL RIO        CLOUDY    35  33  92 SE7       30.25S WCI  29
LAUGHLIN AFB   CLOUDY    36  32  87 SE6       30.24F WCI  31
CARRIZO SPRGS  DRIZZLE   34  34 100 N6        30.25F WCI  29
$$

TXZ173-191>194-202-209-217>225-228-281100-
CENTRAL AND SOUTH CENTRAL TEXAS

CITY           SKY/WX    TMP DP  RH WIND       PRES   REMARKS
GEORGETOWN     CLOUDY    30  25  80 N8        30.31S WCI  23
AUSTIN/BERGSTM CLOUDY    32  27  81 N13       30.30F WCI  22
AUSTIN/MABRY   CLOUDY    31  27  85 NE6       30.30F WCI  25
*AUSTIN/EXEC   CLOUDY    32  27  80 N12G17    30.31S WCI  23
*LAGO VISTA    CLOUDY    29  27  92 NE8       30.27F WCI  21
SAN MARCOS     CLOUDY    30  27  86 NE13      30.29S WCI  20
NEW BRAUNFELS  CLOUDY    33  29  85 N15       30.26F WCI  23
RANDOLPH AFB   LGT RAIN  32  30  93 N10       30.25S WCI  24
PT SAN ANTONIO LGT RAIN  34  32  93 NE9       30.23F FOG     WCI  26
SAN ANTONIO    LGT RAIN  34  31  88 NE8       30.26S FOG     WCI  27
STINSON FIELD  LGT RAIN  34  31  88 NE8       30.24F FOG     WCI  27
*PLEASANTON    LGT RAIN  34  33  96 N12       30.26S WCI  25
*LA GRANGE     MOCLDY    40  32  73 NE3       30.27S
*GIDDINGS      CLOUDY    36  28  73 NE6       30.33F WCI  31
*GONZALES      DRIZZLE   38  30  74 N9        30.27S WCI  31
$$

TXZ163>164-176>182-195>201-210>213-226-227-235-281100-
SOUTHEAST TEXAS

CITY           SKY/WX    TMP DP  RH WIND       PRES   REMARKS
COLLEGE STN    CLOUDY    37  27  67 NE8       30.32S WCI  31
*BRYAN         CLOUDY    36  27  71 NE10      30.33F WCI  28
*CALDWELL      CLOUDY    36  30  80 N6        30.34F WCI  31
*CROCKETT      PTCLDY    37  30  75 NE6       30.37F WCI  33
*BRENHAM       CLOUDY    39  31  71 NE6       30.31S WCI  35
HUNTSVILLE     CLOUDY    36  27  69 E7        30.31F WCI  30
CONROE         CLOUDY    37  27  67 E10       30.32F WCI  30
HOUSTON BUSH   CLOUDY    39  30  70 NE12      30.31F WCI  32
HOUSTON HOBBY  CLOUDY    41  34  76 NE16      30.29F WCI  33
*HOUSTON SW AP CLOUDY    48  44  84 NE10      30.29S WCI  44
PEARLAND       LGT RAIN  42  37  82 E15G24    30.31S WCI  34
HOUSTON HOOKS  CLOUDY    38  29  70 NE8       30.30F WCI  32
ELLINGTON FLD  MOCLDY    41  34  75 NE14      30.29F WCI  33
SUGAR LAND     CLOUDY    41  33  73 NE14      30.28F WCI  33
*HOUSTON EXEC  CLOUDY    39  30  70 NE13      30.30F WCI  32
*CLEVELAND MUN CLOUDY    37  30  75 E3        30.34F
*WHARTON       CLOUDY    43  37  78 NE10G17   30.27S WCI  37
*COLUMBUS      CLOUDY    41  32  71 NE10G16   30.27S WCI  34
$$

TXZ214>216-236>238-281100-
THE UPPER TEXAS COAST

CITY           SKY/WX    TMP DP  RH WIND       PRES   REMARKS
*ORANGE        CLOUDY    37  31  77 NE10      30.34F WCI  30
PORT ARTHUR    CLOUDY    39  30  70 NE10      30.32F WCI  32
GALVESTON      CLOUDY    45  42  89 NE14      30.30S WCI  38
ANGLETON       CLOUDY    43  41  93 NE10      30.26F WCI  37
*BAY CITY      CLOUDY    46  43  89 NE13      30.24F WCI  40
PALACIOS       CLOUDY    48  41  76 NE14      30.23S WCI  42
$$

TXZ229>234-239>247-281100-
TEXAS COASTAL BEND AND RIO GRANDE PLAINS

CITY           SKY/WX    TMP DP  RH WIND       PRES   REMARKS
VICTORIA       CLOUDY    46  38  73 NE14      30.23F WCI  40
*BEEVILLE      CLOUDY    44  40  85 NE9       30.19F WCI  39
ROCKPORT       LGT RAIN  50  47  89 NE17      30.17F FOG     WCI  44
*PORT ARANSAS  CLOUDY    56  55  97 E17G26    30.14F FOG
*PORT LAVACA   CLOUDY    47  42  81 NE17      30.22S WCI  41
*INGLESIDE     DRIZZLE   49  48  96 NE13      30.16S WCI  44
CORPUS CHRISTI LGT RAIN  49  47  93 NE16      30.15F FOG     WCI  43
CORPUS NAS     LGT RAIN  57  32  38 E17       30.14S
*ROBSTOWN      NOT AVBL
ALICE          RAIN      44  42  93 N7        30.19S FOG     WCI  40
KINGSVILLE NAS LGT RAIN  45  45 100 N12       30.18R FOG     WCI  39
COTULLA        LGT RAIN  37  35  92 N7        30.25F FOG     WCI  32
*FAITH RANCH   CLOUDY    36  36 100 N6        30.25F WCI  31
LAREDO         LGT RAIN  37  36  96 NW9       30.25S FOG     WCI  30
$$

TXZ248>255-281100-
DEEP SOUTH TEXAS

CITY           SKY/WX    TMP DP  RH WIND       PRES   REMARKS
BROWNSVILLE    CLOUDY    52  51  97 NW9       30.13F FOG
PORT ISABEL    CLOUDY    53  51  93 NW9       30.12F FOG
*SOUTH PADRE   MOCLDY    55  55 100 W9        30.12S
HARLINGEN      CLOUDY    49  48  97 NW12      30.14S FOG     WCI  44
*HEBBRONVILLE  HVY RAIN N/A N/A N/A NW9       30.19S
MCALLEN        CLOUDY    47  45  93 W8        30.18S FOG     WCI  43
*WESLACO       FOG       47  46  94 NW9       30.16S VSB 1   WCI  43
FALFURRIAS     CLOUDY    45  43  93 N7        30.16F WCI  41
EDINBURG       CLOUDY    47  45  91 NW9       30.18R FOG     WCI  43
*ZAPATA        CLOUDY    37  37 100 NW8       30.21S FOG     WCI  31
$$

TXZ213>215-236>238-242>244-246-247-251-254-255-281100-
CMAN STATIONS

STATION/POSITION TIME  TEMP    WIND        PRES    WAVE
                       AIR SEA DIR/SP/G            HT/PER
                 (UTC) (F)     (DEG/KT/KT) (MB)    (FT/S)
SABINE PASS      1000   39 51   50/ 13/ 18 1026.5
SEA RIM ST PARK  1000   39      50/ 14/ 17 1027.0
NORTH JETTY/GLS  1000   45 50  100/ 21/ 25   N/A
EAGLE POINT      1000   42 45   80/ 16/ 18 1026.4
MORGANS POINT    1000   40 53   60/ 10/ 12 1026.3
MISSION/ARANSAS  0900   49     VRB  9      1022.0
PORT O`CONNOR    1000           60/ 23/ 26   N/A
PORT ARANSAS     1000   57 55   60/ 19/ 22 1020.8
MALAQUITE BEACH  1000   59 56   60/ 15/ 19 1019.6
BAFFIN BAY       1000   53     320/  8/ 15 1020.4
PORT ISABEL      1000   53 58  290/  4/  8 1019.9
$$

GMZ080-GMZ150>470-281100-
OFFSHORE BUOY REPORTS

STATION/POSITION TIME  TEMP    WIND        PRES    WAVE
                       AIR SEA DIR/SP/G            HT/PER
                 (UTC) (F)     (DEG/KT/KT) (MB)    (FT/S)
20 E GALVESTON   1000   49 56   70/ 21/ 29 1024.7    7/ 6
90 E PT ARANSAS  1000   60 66   70/ 23/ 27 1021.8   10/ 8
35 NE PT MANSFLD 1000   66 69  100/ 23/ 27 1018.6   11/ 8
200 E PT ISABEL  1000   67 69  100/ 16/ 19 1020.4    9/ 8
$$



USA.gov is the U.S. government's official web portal to all federal, state and local government web resources and services.